This is the latest recevied weather packets stored in our database for station/object F6BIJ-13. If no packets are shown the sender has not sent any weather packets the latest 10 day(s).
| Time | Temp. | Humidity | Pressure | Rain* | Wind** | Luminosity | Snow |
|---|---|---|---|---|---|---|---|
| 1777278638 | 18.89° C | 52% | 1020.4 hPa | 0 mm | - | - | - |
| 1777278277 | 17.78° C | 52% | 1020.3 hPa | 0 mm | - | - | - |
| 1777277917 | 18.33° C | 49% | 1020.4 hPa | 0 mm | - | - | - |
| 1777277557 | 17.78° C | 54% | 1020.5 hPa | 0 mm | - | - | - |
| 1777277197 | 17.78° C | 53% | 1020.5 hPa | 0 mm | - | - | - |
| 1777276837 | 17.78° C | 56% | 1020.6 hPa | 0 mm | - | - | - |
| 1777276477 | 17.78° C | 58% | 1020.6 hPa | 0 mm | - | - | - |
| 1777276117 | 17.78° C | 54% | 1020.6 hPa | 0 mm | - | - | - |
| 1777275757 | 18.89° C | 55% | 1020.6 hPa | 0 mm | - | - | - |
| 1777275397 | 17.78° C | 61% | 1020.7 hPa | 0 mm | - | - | - |
| 1777275037 | 17.78° C | 60% | 1020.7 hPa | 0 mm | - | - | - |
| 1777274677 | 16.11° C | 64% | 1020.7 hPa | 0 mm | - | - | - |
| 1777274317 | 15.56° C | 64% | 1020.7 hPa | 0 mm | - | - | - |
| 1777273957 | 15.56° C | 64% | 1020.8 hPa | 0 mm | - | - | - |
| 1777273597 | 15.56° C | 62% | 1020.8 hPa | 0 mm | - | - | - |
| 1777273238 | 15.56° C | 62% | 1020.8 hPa | 0 mm | - | - | - |
| 1777272877 | 15.56° C | 63% | 1020.9 hPa | 0 mm | - | - | - |
| 1777272517 | 15° C | 62% | 1020.9 hPa | 0 mm | - | - | - |
| 1777272157 | 15° C | 66% | 1020.9 hPa | 0 mm | - | - | - |
| 1777271797 | 14.44° C | 68% | 1020.9 hPa | 0 mm | - | - | - |
| 1777271437 | 13.89° C | 73% | 1020.9 hPa | 0 mm | - | - | - |
| 1777271077 | 12.22° C | 76% | 1021 hPa | 0 mm | - | - | - |
| 1777270717 | 12.78° C | 77% | 1020.9 hPa | 0 mm | - | - | - |
| 1777270357 | 12.22° C | 79% | 1020.9 hPa | 0 mm | - | - | - |
| 1777269997 | 12.22° C | 81% | 1020.9 hPa | 0 mm | - | - | - |
* Rain latest 24 hours (hover to see other rain measurements)
** Current wind speed in m/s (hover to see current wind gust speed)